Zurück zum Katalog

NAVSTAR 43

USA 132

AktivNavigationHEO
NORAD 24876·PAYLOAD·🇺🇸 United States

Gestartet Jul 23, 1997 von Cape Canaveral Space Force Station

Loading…

Nächste Überflüge (nächste 24 Stunden)

TLE

AktuellSource: Space-Track

Epoche: Sep 13, 2026, 22:46 UTC

1 24876U 97035A   26256.94895644 -.00000004  00000-0  00000-0 0  9996
2 24876  56.0455  95.1038 0105916  58.8703 302.2353  2.00564410213739

Verfolge NAVSTAR 43 in Echtzeit mit AllMySat

Download on the App Store